W8SZ Weather Reports


Display with metric or nautical units.
time (UTC)temp
F
wind
direction
speed
MPH
gust
MPH
rain 1hr
in
rain 24hr
in
rain mn
in
humidity
%
barometer
mb
20170523143836 54 242 1.0 0.0 0.00 0.00 0.00 99 1009.3
20170523143346 54 242 3.0 0.0 0.00 0.00 0.00 99 1009.3
20170523142846 54 242 3.0 0.0 0.00 0.00 0.00 99 1009.3
20170523142336 54 242 1.0 0.0 0.00 0.00 0.00 98 1009.6
20170523141846 54 242 2.0 0.0 0.00 0.00 0.00 98 1009.5
20170523141335 54 242 3.0 0.0 0.00 0.00 0.00 97 1009.6
20170523140844 54 242 2.0 0.0 0.00 0.00 0.00 97 1009.3
20170523140354 55 242 2.0 0.0 0.00 0.00 0.00 96 1009.6
20170523135835 55 242 1.0 0.0 0.00 0.00 0.00 96 1009.3
20170523135346 55 242 3.0 0.0 0.00 0.00 0.00 96 1009.2
20170523134836 55 242 2.0 0.0 0.00 0.00 0.00 95 1009.2
20170523134346 56 242 2.0 0.0 0.00 0.00 0.00 94 1009.5
20170523133835 56 242 1.0 0.0 0.00 0.00 0.00 94 1009.3
20170523133346 56 242 1.0 0.0 0.00 0.00 0.00 93 1009.2
20170523132847 57 242 2.0 0.0 0.00 0.00 0.00 93 1009.4
20170523132337 57 242 2.0 0.0 0.00 0.00 0.00 93 1009.5
20170523131847 57 242 3.0 0.0 0.00 0.00 0.00 93 1009.5
20170523131337 57 243 4.0 0.0 0.00 0.00 0.00 94 1009.4
20170523130842 57 244 4.0 0.0 0.00 0.00 0.00 94 1009.7
20170523130351 57 244 2.0 0.0 0.00 0.00 0.00 94 1009.7
20170523125851 56 246 2.0 0.0 0.00 0.00 0.00 95 1009.8
20170523125341 56 246 3.0 0.0 0.00 0.00 0.00 95 1009.6
20170523124831 56 246 1.0 0.0 0.00 0.00 0.00 96 1009.2
20170523124344 56 258 6.0 0.0 0.00 0.00 0.00 95 1009.3
20170523123832 55 238 3.0 0.0 0.00 0.00 0.00 97 1009.6
20170523123344 55 237 1.0 0.0 0.00 0.00 0.00 100 1009.1
20170523122842 54 237 0.0 0.0 0.00 0.00 0.00 100 1009.1
20170523122351 54 236 3.0 0.0 0.00 0.00 0.00 100 1009.2
20170523121842 53 223 2.0 0.0 0.00 0.00 0.00 100 1009.2
20170523121352 53 222 3.0 0.0 0.00 0.00 0.00 100 1009.1
20170523120840 52 222 2.0 0.0 0.00 0.00 0.00 100 1009.2
20170523120339 52 222 1.0 0.0 0.00 0.00 0.00 100 1009.2
20170523115841 51 221 2.0 0.0 0.00 0.00 0.00 100 1009.3
20170523115351 50 221 1.0 0.0 0.00 0.00 0.00 100 1009.2
20170523114840 50 221 0.0 0.0 0.00 0.00 0.00 100 1009.2
20170523114348 49 221 1.0 0.0 0.00 0.00 0.00 100 1009.4
20170523113837 49 221 1.0 0.0 0.00 0.00 0.00 100 1009.2
20170523113347 49 221 3.0 0.0 0.00 0.00 0.00 100 1009.5
20170523112843 48 221 1.0 0.0 0.00 0.00 0.00 100 1009.3
20170523112352 48 221 1.0 0.0 0.00 0.00 0.00 100 1009.3
20170523111840 47 221 2.0 0.0 0.00 0.00 0.00 100 1009.1
20170523111350 47 217 2.0 0.0 0.00 0.00 0.00 100 1009.3
20170523110841 46 270 2.0 0.0 0.00 0.00 0.00 100 1009.2
20170523110352 46 270 0.0 0.0 0.00 0.00 0.00 100 1008.9
20170523105831 45 270 0.0 0.0 0.00 0.00 0.00 100 1009.0
20170523105342 45 270 0.0 0.0 0.00 0.00 0.00 100 1008.8
20170523104835 45 270 0.0 0.0 0.00 0.00 0.00 100 1009.0
20170523104344 45 270 0.0 0.0 0.00 0.00 0.00 100 1009.0
20170523103836 44 270 0.0 0.0 0.00 0.00 0.00 100 1008.9
20170523103347 44 270 0.0 0.0 0.00 0.00 0.00 100 1009.0
20170523102847 44 270 0.0 0.0 0.00 0.00 0.00 100 1009.0
20170523102338 44 270 1.0 0.0 0.00 0.00 0.00 100 1009.0
20170523101847 43 270 3.0 0.0 0.00 0.00 0.00 100 1009.1
20170523101337 43 270 1.0 0.0 0.00 0.00 0.00 100 1009.0
20170523100848 43 270 0.0 0.0 0.00 0.00 0.00 100 1009.0
20170523100340 44 270 1.0 0.0 0.00 0.00 0.00 100 1008.9
20170523095842 44 270 1.0 0.0 0.00 0.00 0.00 100 1008.8
20170523095334 44 270 1.0 0.0 0.00 0.00 0.00 100 1009.1
20170523094844 44 270 1.0 0.0 0.00 0.00 0.00 100 1008.9
20170523094335 44 270 0.0 0.0 0.00 0.00 0.00 100 1008.9
20170523093844 44 270 2.0 0.0 0.00 0.00 0.00 100 1009.0
20170523093351 44 270 0.0 0.0 0.00 0.00 0.00 100 1008.7
20170523092850 44 270 2.0 0.0 0.00 0.00 0.00 100 1008.8
20170523092342 44 270 1.0 0.0 0.00 0.00 0.00 100 1009.0
20170523091851 44 270 0.0 0.0 0.00 0.00 0.00 100 1009.0
20170523091342 44 270 2.0 0.0 0.00 0.00 0.00 100 1009.1
20170523090850 44 270 2.0 0.0 0.00 0.00 0.00 100 1009.0
20170523090342 45 270 3.0 0.0 0.00 0.00 0.00 100 1009.0
20170523085842 45 270 2.0 0.0 0.00 0.00 0.00 100 1009.1
20170523085351 45 270 1.0 0.0 0.00 0.00 0.00 100 1009.0
20170523084841 45 270 0.0 0.0 0.00 0.00 0.00 100 1009.1
20170523084350 45 270 0.0 0.0 0.00 0.00 0.00 100 1009.3
20170523083840 45 270 0.0 0.0 0.00 0.00 0.00 100 1009.3
20170523083352 45 270 0.0 0.0 0.00 0.00 0.00 100 1009.0
20170523082832 45 270 2.0 0.0 0.00 0.00 0.00 100 1009.4
20170523082343 46 270 2.0 0.0 0.00 0.00 0.00 100 1009.2
20170523081835 46 270 1.0 0.0 0.00 0.00 0.00 100 1009.2
20170523081344 46 270 2.0 0.0 0.00 0.00 0.00 100 1009.3
20170523080836 46 270 1.0 0.0 0.00 0.00 0.00 100 1009.4
20170523080346 46 270 2.0 0.0 0.00 0.00 0.00 100 1009.6
20170523075845 46 270 1.0 0.0 0.00 0.00 0.00 100 1009.2
20170523075336 47 270 2.0 0.0 0.00 0.00 0.00 100 1009.2
20170523074844 47 270 2.0 0.0 0.00 0.00 0.00 100 1009.5
20170523074336 47 270 1.0 0.0 0.00 0.00 0.00 100 1009.4
20170523073842 47 270 2.0 0.0 0.00 0.00 0.00 100 1009.2
20170523073352 47 270 2.0 0.0 0.00 0.00 0.00 100 1009.3
20170523072832 48 270 0.0 0.0 0.00 0.00 0.00 100 1009.3
20170523072343 48 270 1.0 0.0 0.00 0.00 0.00 100 1009.3
20170523071832 48 270 1.0 0.0 0.00 0.00 0.00 100 1009.7
20170523071345 48 270 1.0 0.0 0.00 0.00 0.00 100 1009.6
20170523070835 48 270 1.0 0.0 0.00 0.00 0.00 100 1009.8
20170523070347 49 270 1.0 0.0 0.00 0.00 0.00 100 1009.6
20170523065846 49 270 0.0 0.0 0.00 0.00 0.00 100 1009.7
20170523065337 49 270 0.0 0.0 0.00 0.00 0.00 100 1009.8
20170523064848 49 270 0.0 0.0 0.00 0.00 0.00 100 1009.8
20170523064338 49 270 1.0 0.0 0.00 0.00 0.00 100 1009.8
20170523063832 49 270 1.0 0.0 0.00 0.00 0.00 100 1009.7
20170523063342 49 270 0.0 0.0 0.00 0.00 0.00 100 1010.0
20170523062843 49 270 0.0 0.0 0.00 0.00 0.00 100 1009.8
20170523062352 49 270 0.0 0.0 0.00 0.00 0.00 100 1009.7
20170523061842 49 270 1.0 0.0 0.00 0.00 0.00 100 1009.8
20170523061332 49 270 0.0 0.0 0.00 0.00 0.00 100 1010.0
20170523060844 49 270 0.0 0.0 0.00 0.00 0.00 100 1009.8
20170523060355 49 270 1.0 0.0 0.00 0.00 0.00 100 1010.0
20170523055838 49 270 0.0 0.0 0.00 0.00 0.00 100 1009.9
20170523055348 49 270 1.0 0.0 0.00 0.00 0.00 100 1010.1
20170523054839 49 270 0.0 0.0 0.00 0.00 0.00 100 1010.2
20170523054346 49 270 1.0 0.0 0.00 0.00 0.00 100 1010.4
20170523053838 49 270 1.0 0.0 0.00 0.00 0.00 100 1010.3
20170523053350 49 270 2.0 0.0 0.00 0.00 0.00 100 1010.4
20170523052850 49 270 2.0 0.0 0.00 0.00 0.00 100 1010.2
20170523052339 49 270 0.0 0.0 0.00 0.00 0.00 100 1010.2
20170523051832 49 270 0.0 0.0 0.00 0.00 0.00 100 1010.2
20170523051343 49 269 0.0 0.0 0.00 0.00 0.00 100 1010.1
20170523050835 49 269 1.0 0.0 0.00 0.00 0.00 100 1009.7
20170523050345 49 269 1.0 0.0 0.00 0.00 0.00 100 1009.7
20170523045844 49 269 0.0 0.0 0.00 0.00 0.00 100 1010.0
20170523045335 49 269 1.0 0.0 0.00 0.00 0.00 100 1010.3
20170523044844 49 269 1.0 0.0 0.00 0.00 0.00 100 1010.1
20170523044334 49 269 2.0 0.0 0.00 0.00 0.00 100 1010.4
20170523043844 49 269 0.0 0.0 0.00 0.00 0.00 100 1010.0
20170523043355 49 269 1.0 0.0 0.00 0.00 0.00 100 1010.1
20170523042836 49 269 2.0 0.0 0.00 0.00 0.00 100 1010.1
20170523042347 49 269 1.0 0.0 0.00 0.00 0.00 100 1010.2
20170523041837 49 269 1.0 0.0 0.00 0.00 0.00 100 1010.6
20170523041349 49 269 1.0 0.0 0.00 0.00 0.00 100 1010.5
20170523040838 48 269 3.0 0.0 0.00 0.00 0.00 100 1010.3
20170523040349 48 269 2.0 0.0 0.00 0.00 0.00 100 1010.3
20170523035850 48 270 3.0 0.0 0.00 0.00 0.00 100 1010.4
20170523035342 48 270 1.0 0.0 0.00 0.00 0.00 100 1010.5
20170523034831 47 270 1.0 0.0 0.00 0.00 0.00 100 1010.4
20170523034338 47 270 1.0 0.0 0.00 0.00 0.00 100 1010.5
20170523033847 47 270 1.0 0.0 0.00 0.00 0.00 100 1010.4
20170523033357 47 270 1.0 0.0 0.00 0.00 0.00 100 1010.6
20170523032839 47 270 2.0 0.0 0.00 0.00 0.00 100 1010.5
20170523032349 46 277 1.0 0.0 0.00 0.00 0.00 100 1010.8
20170523031840 46 277 1.0 0.0 0.00 0.00 0.00 100 1010.7
20170523031331 47 277 2.0 0.0 0.00 0.00 0.00 100 1010.5
20170523030842 47 277 1.0 0.0 0.00 0.00 0.00 100 1010.8
20170523030353 47 277 0.0 0.0 0.00 0.00 0.00 100 1010.6
20170523025832 47 277 1.0 0.0 0.00 0.00 0.00 100 1010.6
20170523025343 47 277 0.0 0.0 0.00 0.00 0.00 100 1010.5
20170523024833 47 277 1.0 0.0 0.00 0.00 0.00 99 1010.6
20170523024342 47 277 0.0 0.0 0.00 0.00 0.00 100 1010.7
20170523023833 47 277 1.0 0.0 0.00 0.00 0.00 99 1010.8
20170523023343 48 277 3.0 0.0 0.00 0.00 0.00 99 1010.9
20170523022844 48 277 2.0 0.0 0.00 0.00 0.00 99 1010.9
20170523022332 48 277 2.0 0.0 0.00 0.00 0.00 98 1010.7
20170523021844 48 277 2.0 0.0 0.00 0.00 0.00 97 1010.7
20170523021332 49 277 2.0 0.0 0.00 0.00 0.00 97 1010.6
20170523020842 49 277 1.0 0.0 0.00 0.00 0.00 97 1010.6
20170523020355 49 277 1.0 0.0 0.00 0.00 0.00 96 1010.4
20170523015837 49 277 0.0 0.0 0.00 0.00 0.00 96 1010.6
20170523015343 50 277 0.0 0.0 0.00 0.00 0.00 95 1010.5
20170523014835 50 277 0.0 0.0 0.00 0.00 0.00 95 1010.6
20170523014344 50 277 0.0 0.0 0.00 0.00 0.00 95 1010.4
20170523013834 50 277 2.0 0.0 0.00 0.00 0.00 94 1010.9
20170523013343 51 277 0.0 0.0 0.00 0.00 0.00 94 1010.6
20170523012843 51 277 1.0 0.0 0.00 0.00 0.00 92 1010.6
20170523012351 51 277 1.0 0.0 0.00 0.00 0.00 91 1010.3
20170523011841 51 277 0.0 0.0 0.00 0.00 0.00 90 1010.4
20170523011350 52 277 0.0 0.0 0.00 0.00 0.00 87 1010.5
20170523010841 52 277 1.0 0.0 0.00 0.00 0.00 87 1010.6
20170523010351 53 277 0.0 0.0 0.00 0.00 0.00 86 1010.4
20170523005852 54 277 0.0 0.0 0.00 0.00 0.00 84 1010.5
20170523005340 54 277 0.0 0.0 0.00 0.00 0.00 84 1010.5
20170523004850 55 277 0.0 0.0 0.00 0.00 0.00 83 1010.9
20170523004339 56 277 3.0 0.0 0.00 0.00 0.00 82 1010.7
20170523003849 56 277 0.0 0.0 0.00 0.00 0.00 79 1010.8
20170523003359 56 277 0.0 0.0 0.00 0.00 0.00 77 1010.7
20170523002839 57 277 0.0 0.0 0.00 0.00 0.00 77 1010.6
20170523002347 57 277 0.0 0.0 0.00 0.00 0.00 77 1010.7
20170523001838 58 277 1.0 0.0 0.00 0.00 0.00 73 1010.7
20170523001348 58 307 1.0 0.0 0.00 0.00 0.00 71 1010.7
20170523000840 59 309 0.0 0.0 0.00 0.00 0.00 72 1010.5
20170523000347 59 309 0.0 0.0 0.00 0.00 0.00 73 1010.6
20170522235849 59 309 0.0 0.0 0.00 0.00 0.00 68 1010.5
20170522235338 60 311 1.0 0.0 0.00 0.00 0.00 67 1010.6
20170522234849 60 313 0.0 0.0 0.00 0.00 0.00 67 1010.8
20170522234340 60 323 0.0 0.0 0.00 0.00 0.00 66 1010.5
20170522233851 61 291 0.0 0.0 0.00 0.00 0.00 64 1010.7
20170522233401 61 292 2.0 0.0 0.00 0.00 0.00 64 1010.5
20170522232841 61 343 1.0 0.0 0.00 0.00 0.00 65 1010.5
20170522232351 61 315 4.0 0.0 0.00 0.00 0.00 61 1010.5
20170522231841 62 1 2.0 0.0 0.00 0.00 0.00 62 1010.7
20170522231344 62 269 2.0 0.0 0.00 0.00 0.00 62 1010.1
20170522230835 62 261 0.0 0.0 0.00 0.00 0.00 62 1010.2
20170522230347 62 359 2.0 0.0 0.00 0.00 0.00 61 1010.2
20170522225849 62 47 1.0 0.0 0.00 0.00 0.00 62 1010.2
20170522225351 62 48 2.0 0.0 0.00 0.00 0.00 64 1010.3
20170522224831 62 251 4.0 0.0 0.00 0.00 0.00 63 1010.3
20170522224342 62 0 2.0 0.0 0.00 0.00 0.00 62 1010.4
20170522223852 62 3 3.0 0.0 0.00 0.00 0.00 62 1010.3
20170522223356 63 273 2.0 0.0 0.00 0.00 0.00 62 1010.4
20170522222836 63 320 2.0 0.0 0.00 0.00 0.00 61 1010.0
20170522222345 63 258 4.0 0.0 0.00 0.00 0.00 62 1010.4
20170522221835 62 251 3.0 0.0 0.00 0.00 0.00 62 1009.9
20170522221346 62 281 2.0 0.0 0.00 0.00 0.00 63 1010.0
20170522220835 62 304 4.0 0.0 0.00 0.00 0.00 67 1010.2
20170522220346 62 229 1.0 0.0 0.00 0.00 0.00 64 1009.9
20170522215847 62 280 3.0 0.0 0.00 0.00 0.00 63 1010.3
20170522215337 62 241 6.0 0.0 0.00 0.00 0.00 62 1010.2
20170522214849 62 348 5.0 0.0 0.00 0.00 0.00 64 1010.0
20170522214341 61 285 3.0 0.0 0.00 0.00 0.00 62 1010.0
20170522213851 61 231 6.0 0.0 0.00 0.00 0.00 62 1010.2
20170522213401 61 256 4.0 0.0 0.00 0.00 0.00 63 1010.1
20170522212840 61 256 2.0 0.0 0.00 0.00 0.00 64 1010.0
20170522212350 61 230 7.0 0.0 0.00 0.00 0.00 63 1010.0
20170522211839 61 260 9.0 0.0 0.00 0.00 0.00 63 1010.2
20170522211349 61 276 5.0 0.0 0.00 0.00 0.00 64 1010.3
20170522210841 61 231 4.0 0.0 0.00 0.00 0.00 63 1010.0
20170522210350 61 274 5.0 0.0 0.00 0.00 0.00 64 1010.1
20170522205851 61 283 4.0 0.0 0.00 0.00 0.00 64 1010.1
20170522205340 61 253 2.0 0.0 0.00 0.00 0.00 66 1010.1
20170522204852 61 267 12.0 0.0 0.00 0.00 0.00 67 1010.1
20170522204341 60 312 2.0 0.0 0.00 0.00 0.00 68 1010.2
20170522203851 60 264 3.0 0.0 0.00 0.00 0.00 68 1010.4
20170522203357 59 326 2.0 0.0 0.00 0.00 0.00 67 1010.2
20170522202838 59 251 7.0 0.0 0.00 0.00 0.00 67 1010.1
20170522202346 59 245 3.0 0.0 0.00 0.00 0.00 68 1010.3
20170522201838 60 247 8.0 0.0 0.00 0.00 0.00 68 1010.6
20170522201350 60 236 5.0 0.0 0.00 0.00 0.00 68 1010.6
20170522200841 60 302 4.0 0.0 0.00 0.00 0.00 67 1010.6
20170522200350 60 267 3.0 0.0 0.00 0.00 0.00 68 1010.4
20170522195851 59 265 6.0 0.0 0.00 0.00 0.00 69 1010.8
20170522195339 59 240 5.0 0.0 0.00 0.00 0.00 71 1010.6
20170522194850 59 8 5.0 0.0 0.00 0.00 0.00 70 1010.9
20170522194335 59 269 5.0 0.0 0.00 0.00 0.00 70 1010.2
20170522193845 59 241 13.0 0.0 0.00 0.00 0.00 70 1010.7
20170522193355 58 297 5.0 0.0 0.00 0.00 0.00 73 1010.3
20170522192837 58 263 6.0 0.0 0.00 0.00 0.00 73 1010.3
20170522192345 58 283 6.0 0.0 0.00 0.00 0.00 73 1010.4
20170522191835 58 257 2.0 0.0 0.00 0.00 0.00 73 1010.4
20170522191347 58 233 8.0 0.0 0.00 0.00 0.00 72 1010.2
20170522190835 57 266 8.0 0.0 0.00 0.00 0.00 74 1010.3
20170522190348 56 254 7.0 0.0 0.00 0.00 0.00 76 1010.2
20170522185846 56 267 5.0 0.0 0.00 0.00 0.00 77 1010.3
20170522185335 56 243 3.0 0.0 0.00 0.00 0.00 78 1010.6
20170522184845 56 207 7.0 0.0 0.00 0.00 0.00 78 1010.5
20170522184332 55 233 10.0 0.0 0.00 0.00 0.00 78 1010.4
20170522183839 55 274 7.0 0.0 0.00 0.00 0.00 79 1010.4
20170522183350 55 239 8.0 0.0 0.00 0.00 0.00 78 1010.3
20170522182849 55 214 5.0 0.0 0.00 0.00 0.00 78 1010.2
20170522182337 55 242 10.0 0.0 0.00 0.00 0.00 79 1010.4
20170522181849 55 316 5.0 0.0 0.00 0.00 0.00 79 1010.7
20170522181340 55 228 5.0 0.0 0.00 0.00 0.00 79 1010.4
20170522180850 55 204 6.0 0.0 0.00 0.00 0.00 78 1010.5
20170522180400 55 232 15.0 0.0 0.00 0.00 0.00 78 1010.2
20170522175837 56 213 6.0 0.0 0.00 0.00 0.00 77 1010.3
20170522175345 56 200 8.0 0.0 0.00 0.00 0.00 78 1010.4
20170522174832 56 279 5.0 0.0 0.00 0.00 0.00 79 1010.1
20170522174343 55 270 10.0 0.0 0.00 0.00 0.00 79 1010.2
20170522173833 55 241 8.0 0.0 0.00 0.00 0.00 79 1010.3
20170522173344 55 258 5.0 0.0 0.00 0.00 0.00 78 1010.5
20170522172845 56 266 3.0 0.0 0.00 0.00 0.00 79 1010.2
20170522172335 56 278 6.0 0.0 0.00 0.00 0.00 81 1010.3
20170522171845 56 246 4.0 0.0 0.00 0.00 0.00 81 1010.1
20170522171335 56 215 7.0 0.0 0.00 0.00 0.00 80 1010.1
20170522170843 55 235 1.0 0.0 0.00 0.00 0.00 79 1010.1
20170522170355 55 250 13.0 0.0 0.00 0.00 0.00 79 1010.1
20170522165834 55 237 1.0 0.0 0.00 0.00 0.00 80 1009.9
20170522165340 55 229 6.0 0.0 0.00 0.00 0.00 80 1009.9
20170522164849 55 240 6.0 0.0 0.00 0.00 0.00 79 1010.0
20170522164339 55 246 13.0 0.0 0.00 0.00 0.00 81 1009.8
20170522163847 55 241 2.0 0.0 0.00 0.00 0.00 83 1010.0
20170522163355 55 248 9.0 0.0 0.00 0.00 0.00 82 1009.9
20170522162837 55 254 6.0 0.0 0.00 0.00 0.00 82 1009.9
20170522162347 55 288 4.0 0.0 0.00 0.00 0.00 82 1010.2
20170522161837 54 190 6.0 0.0 0.00 0.00 0.00 84 1010.2
20170522161346 54 343 4.0 0.0 0.00 0.00 0.00 85 1009.9
20170522160834 53 223 10.0 0.0 0.00 0.00 0.00 85 1010.2
20170522160346 53 227 2.0 0.0 0.00 0.00 0.00 85 1010.2
20170522155845 53 306 4.0 0.0 0.00 0.00 0.00 86 1010.0
20170522155334 53 226 14.0 0.0 0.00 0.00 0.00 86 1010.3
20170522154843 53 282 3.0 0.0 0.00 0.00 0.00 86 1010.1
20170522154333 53 317 6.0 0.0 0.00 0.00 0.00 86 1009.9
20170522153844 53 261 5.0 0.0 0.00 0.00 0.00 87 1009.9
20170522153355 52 260 4.0 0.0 0.00 0.00 0.00 88 1009.8
20170522152835 52 266 4.0 0.0 0.00 0.00 0.00 88 1010.2
20170522152345 52 290 9.0 0.0 0.00 0.00 0.00 87 1010.1
20170522151833 53 203 7.0 0.0 0.00 0.00 0.00 87 1010.1
20170522151343 52 252 7.0 0.0 0.00 0.00 0.00 88 1009.9
20170522150833 52 253 3.0 0.0 0.00 0.00 0.00 88 1010.3
20170522150401 52 282 9.0 0.0 0.00 0.00 0.00 89 1009.8
20170522145841 52 280 8.0 0.0 0.00 0.00 0.00 89 1009.8
20170522145351 52 274 5.0 0.0 0.00 0.00 0.00 89 1009.8
20170522144840 52 231 2.0 0.0 0.00 0.00 0.00 89 1010.2
20170522144350 51 189 4.0 0.0 0.00 0.00 0.00 89 1010.1